Location: Newark
(21.1200°N, 73.4000°E)
Time: 21:43:14
(UTC+00:00)

Courier 1B Rocket - Pass Details

Date: 24 January 2020
Orbit: 920 x 1202 km, 28.2° (Epoch: 19 February)

Event Time Altitude Azimuth Distance (km) Brightness Sun altitude
Rises 08:19:31 0° 275° (W) 3,870 8.3 46.9°
Reaches altitude 10° 08:22:28 10° 281° (WNW) 2,868 7.7 46.6°
Maximum altitude 08:29:08 47° 354° (N) 1,297 5.9 46.0°
Drops below altitude 10° 08:35:23 10° 68° (ENE) 2,684 7.1 45.4°
Sets 08:38:03 0° 74° (ENE) 3,601 7.7 45.1°
